Über Lemur-2 Valhalla
Group: 3 satellites
Beschreibung wird geladen...
Live-Position
3D-Globus wird geladen...
Nächste Überflüge
Höhenverlauf
Altitude vs Time
uPlot chart will show altitude changes over time
Zweizeiliger Elementsatz
1 58900U 24022B 26063.13464551 .00025578 00000-0 72253-3 0 9997
2 58900 97.4227 272.0332 0011062 127.3945 232.8307 15.36282554116122
Epoch: 4. März 2026 •
Age: 17 hours
Aktueller Status
Höhe 464.5 km
Geschwindigkeit 7.63 km/s
Subsatellitenpunkt -0.15°S,
149.33°W
Startdatum 31. Jan. 2024
Alter 2 years
Typ other
Technische Details
Klassifizierung Payload
Masse 25.00 kg
Trockenmasse 25.00 kg
Gesamtmasse 25.00 kg
Länge 0.40 m
Durchmesser 0.20 m
Spannweite 1.00 m
Form Box+2 pan
Hersteller SPIREG
Bus-Typ Cubesat 3U
Phasenstatus In Orbit
Besitzer/Staat SPIRE/NSTAR/US
Große Konstellationen
Loading constellations...